[[{"header":{"parameterUnit":"m.s-1","parameterCategory":1,"la1":30.2991,"la2":30.254,"lo1":-89.0895,"lo2":-89.0444,"dy":0.0017,"dx":0.0017,"nx":28,"ny":28,"refTime":"2024-02-02T03:00:00:Z","depth":0,"parameterNumber":2,"parameterNumberName":"U-component_of_WINDS"},"data":[0,0,0,0,0,0,0,0,0,0,0,0,0,0,0,0,0,0,0,0,0,0,0,0,0,0,0,0,0,0,0,0,0,0,0,0,0,0,0,0,0,0,0,0,0,0,0,0,0,0,0,0,0,0,0,0,0,0,-4.8039,-4.804,0,-4.812,-4.8121,-4.8122,-4.8018,-4.8014,-4.801,-4.8007,-4.809,-4.8096,-4.8101,0,0,0,0,0,0,0,0,0,0,0,0,0,-4.7792,-4.7798,-4.8039,-4.804,-4.8041,-4.812,-4.8121,-4.8122,-4.8019,-4.8014,-4.8009,-4.8005,-4.8088,-4.8095,-4.8102,0,0,0,0,0,0,0,0,0,0,0,0,0,-4.7889,-4.7799,-4.8038,-4.7999,-4.7996,-4.812,-4.8121,-4.8123,-4.802,-4.8014,-4.8008,-4.8003,-4.8086,-4.8094,-4.8103,-4.827,0,0,-4.8129,-4.8133,0,0,0,0,0,0,0,0,-4.7884,-4.7898,-4.8003,-4.8002,-4.7999,-4.8053,-4.8065,-4.8172,-4.8021,-4.8011,-4.8007,-4.8,-4.8082,-4.8091,-4.8119,-4.8274,-4.8277,-4.813,-4.8135,-4.8139,-4.8141,0,0,0,0,0,0,0,-4.7877,-4.7894,-4.8071,-4.8005,-4.8002,-4.7976,-4.7984,-4.8085,-4.8077,-4.8011,-4.8004,-4.8015,-4.808,-4.8111,-4.812,-4.8278,-4.813,-4.8137,-4.8143,-4.8146,-4.8575,-4.8581,0,0,0,0,0,0,-4.7875,-4.7889,-4.8068,-4.8073,-4.7926,-4.7985,-4.7994,-4.8041,-4.8076,-4.8076,-4.802,-4.801,-4.8099,-4.811,-4.8122,-4.8321,-4.8139,-4.8147,-4.8152,-4.8569,-4.8576,-4.8583,0,0,0,0,0,0,-4.7871,-4.7892,-4.8065,-4.7979,-4.7999,-4.7996,-4.805,-4.8046,-4.8077,-4.8082,-4.808,-4.8052,-4.8095,-4.811,-4.8234,-4.8323,-4.8151,-4.8158,-4.8561,-4.8571,-4.858,-4.872,0,0,0,0,0,0,-4.7864,-4.7891,-4.7955,-4.7982,-4.8004,-4.8176,-4.8055,-4.8052,-4.8092,-4.808,-4.8113,-4.8113,-4.8091,-4.8222,-4.8243,-4.8331,-4.8165,-4.8554,-4.8566,-4.8577,-4.8708,-4.8733,-4.8755,0,0,0,0,0,-4.7856,-4.7991,-4.7959,-4.7981,-4.8084,-4.8181,-4.8194,-4.8167,-4.8099,-4.8163,-4.8167,-4.8112,-4.8309,-4.8235,-4.8258,-4.8351,-4.8548,-4.8562,-4.8576,-4.8697,-4.8728,-4.8755,0,0,0,0,0,0,-4.7975,-4.7994,-4.7958,-4.8107,-4.8143,-4.8164,-4.8244,-4.8201,-4.8258,-4.8244,-4.8207,-4.8216,-4.8348,-4.8361,-4.8279,-4.8514,-4.8417,-4.8436,-4.8502,-4.8531,-4.8554,-4.855,-4.8172,0,0,0,0,0,-4.8019,-4.8096,-4.8108,-4.8238,-4.8258,-4.8248,-4.8289,-4.8265,-4.8302,-4.8317,-4.8329,-4.8367,-4.8437,-4.8484,-4.8549,-4.8708,-4.8714,-4.8783,-4.8806,-4.8826,-4.8844,-4.893,-4.8961,-4.8629,-4.8629,-4.8629,0,0,-4.811,-4.8129,-4.8181,-4.8262,-4.8288,-4.837,-4.8262,-4.8352,-4.8413,-4.833,-4.8449,-4.8459,-4.8498,-4.8641,-4.8704,-4.8656,-4.8936,-4.8844,-4.8859,-4.8867,-4.8947,-4.8979,-4.9007,-4.8639,-4.8637,-4.8635,0,0,-4.8318,-4.834,-4.8451,-4.8479,-4.8519,-4.8511,-4.8538,-4.8565,-4.8569,-4.8687,-4.8627,-4.8697,-4.8819,-4.885,-4.8881,-4.91,-4.9052,-4.9122,-4.9247,-4.9331,-4.9358,-4.9381,-4.946,-4.9489,-4.9139,-4.914,-4.914,0,-4.8426,-4.8547,-4.8513,-4.8609,-4.8647,-4.8575,-4.8688,-4.8716,-4.8776,-4.8804,-4.8748,-4.89,-4.8921,-4.907,-4.9124,-4.9151,-4.9181,-4.912,-4.9356,-4.9379,-4.94,-4.9476,-4.9506,-4.9148,-4.9147,-4.9146,-4.9146,0,-4.8678,-4.8763,-4.8848,-4.8908,-4.8954,-4.9058,-4.9041,-4.9092,-4.9063,-4.9061,-4.9183,-4.9205,-4.9274,-4.9307,-4.9279,-4.9453,-4.9422,-4.9362,-4.9264,-4.9441,-4.9512,-4.954,-4.916,-4.9157,-4.9155,-4.9153,0,0,-4.8966,-4.9006,-4.9038,-4.9064,-4.9103,-4.9167,-4.9267,-4.9335,-4.938,-4.9423,-4.9506,-4.9611,-4.9556,-4.9592,-4.9567,-4.964,-4.9814,-4.9571,-4.9572,-4.9618,-5.0008,-5.0055,-5.0089,-4.9781,-4.9787,-4.9791,-5.0006,0,-4.9176,-4.935,-4.9323,-4.9491,-4.9569,-4.9501,-4.9588,-4.9621,-4.9622,-4.9688,-4.9688,-4.9763,-4.9684,-4.9705,-4.9775,-4.9779,-4.9893,-4.9762,-4.986,-4.9864,-4.9855,-5.0126,-5.0175,-5.0377,-5.0033,-5.0038,-5.0041,0,-4.9445,-4.9498,-4.9674,-4.9701,-4.9733,-4.9812,-4.9871,-4.9935,-4.9971,-4.9966,-5.0006,-4.9967,-5.0067,-4.9966,-5.0103,-5.0015,-5.0052,-5.006,-5.0067,-5.0077,-4.9965,-5.0146,-5.0441,-5.0472,-5.0084,-5.008,-5.0077,0,-4.964,-4.9755,-4.9876,-4.99,-4.9934,-4.9991,-5.0007,-5.0037,-5.008,-5.0132,-5.0159,-5.0221,-5.0256,-5.0306,-5.0285,-5.0213,-5.0427,-5.0323,-5.0427,-5.0428,-5.0477,-5.0475,-5.0785,-5.0497,-5.0497,-5.0496,-5.0496,0,-4.9879,-4.999,-4.9964,-5.0039,-5.0161,-5.0128,-5.0249,-5.0257,-5.0285,-5.036,-5.0304,-5.0375,-5.0342,-5.0411,-5.0395,-5.0513,-5.0528,-5.0527,-5.0522,-5.0534,-5.0535,-5.056,-5.0547,-5.0504,-5.0503,-5.0501,-5.05,0,-5.0119,-5.0106,-5.0233,-5.0254,-5.0262,-5.0351,-5.0369,-5.0439,-5.0434,-5.053,-5.055,-5.0543,-5.0622,-5.0605,-5.0691,-5.068,-5.0828,-5.0804,-5.0817,-5.0812,-5.0917,-5.0908,-5.1257,-5.1302,-5.0983,-5.0986,-5.0989,0,-5.0273,-5.0357,-5.0387,-5.0434,-5.0455,-5.053,-5.0573,-5.0543,-5.059,-5.0637,-5.0701,-5.0774,-5.0832,-5.096,-5.0963,-5.1028,-5.1007,-5.1124,-5.1017,-5.1026,-5.1012,-5.1008,-5.1017,-5.1147,-5.1151,-5.1154,-5.1156,0,-5.055,-5.0539,-5.0603,-5.0666,-5.0719,-5.0767,-5.0809,-5.085,-5.0823,-5.0879,-5.0959,-5.1003,-5.1091,-5.1165,-5.1226,-5.1242,-5.1196,-5.1189,-5.1217,-5.1232,-5.1236,-5.1237,-5.0878,-5.1182,-5.118,-5.1178,-5.1176,-5.1175,-5.0753,-5.0825,-5.0858,-5.0931,-5.096,-5.1001,-5.1068,-5.1072,-5.1138,-5.1207,-5.1185,-5.1276,-5.1309,-5.1386,-5.1409,-5.148,-5.1436,-5.1476,-5.1486,-5.1497,-5.1511,-5.1223,-5.149,-5.149,-5.1489,-5.1488,-5.1488,0,-5.1029,-5.1046,-5.1114,-5.1176,-5.1234,-5.1184,-5.1228,-5.128,-5.1361,-5.1396,-5.1453,-5.1545,-5.1616,-5.1624,-5.1692,-5.1747,-5.1727,-5.1766,-5.1763,-5.1768,-5.1546,-5.1516,-5.1781,-5.1781,-5.1781,-5.178,-5.178,-5.178,-5.1179,-5.1299,-5.1292,-5.1425,-5.1441,-5.1531,-5.156,-5.1598,-5.1625,-5.1731,-5.179,-5.1794,-5.1819,-5.1887,-5.195,-5.195,-5.1979,-5.2026,-5.2019,-5.1812,-5.1783,-5.1755,-5.1727,-5.2032,-5.2033,-5.2235,-5.2237,-5.2239]},{"header":{"parameterUnit":"m.s-1","parameterCategory":1,"la1":30.2991,"la2":30.254,"lo1":-89.0895,"lo2":-89.0444,"dy":0.0017,"dx":0.0017,"nx":28,"ny":28,"refTime":"2024-02-02T03:00:00:Z","depth":0,"parameterNumber":3,"parameterNumberName":"V-component_of_WINDS"},"data":[0,0,0,0,0,0,0,0,0,0,0,0,0,0,0,0,0,0,0,0,0,0,0,0,0,0,0,0,0,0,0,0,0,0,0,0,0,0,0,0,0,0,0,0,0,0,0,0,0,0,0,0,0,0,0,0,0,0,-0.4661,-0.466,0,-0.4537,-0.4536,-0.4535,-0.443,-0.4429,-0.4428,-0.4427,-0.4302,-0.4299,-0.4297,0,0,0,0,0,0,0,0,0,0,0,0,0,-0.4807,-0.4805,-0.4661,-0.466,-0.4658,-0.4538,-0.4536,-0.4534,-0.4431,-0.4429,-0.4428,-0.4426,-0.4302,-0.43,-0.4297,0,0,0,0,0,0,0,0,0,0,0,0,0,-0.472,-0.4804,-0.4661,-0.4592,-0.4584,-0.4538,-0.4536,-0.4534,-0.4431,-0.4429,-0.4427,-0.4426,-0.4303,-0.43,-0.4296,-0.431,0,0,-0.4286,-0.4285,0,0,0,0,0,0,0,0,-0.4725,-0.4714,-0.4603,-0.4596,-0.4588,-0.4497,-0.4541,-0.4459,-0.4431,-0.4489,-0.4427,-0.4425,-0.4368,-0.4359,-0.434,-0.4304,-0.4298,-0.4286,-0.4284,-0.4282,-0.4281,0,0,0,0,0,0,0,-0.4731,-0.4719,-0.4612,-0.4602,-0.4592,-0.4566,-0.4552,-0.4525,-0.444,-0.4484,-0.4476,-0.4463,-0.4364,-0.4344,-0.4336,-0.4297,-0.4286,-0.4283,-0.4281,-0.4279,-0.4263,-0.4265,0,0,0,0,0,0,-0.4748,-0.4725,-0.4616,-0.4608,-0.4653,-0.4565,-0.4549,-0.4528,-0.444,-0.4425,-0.4464,-0.4458,-0.435,-0.434,-0.4331,-0.434,-0.4282,-0.4279,-0.4277,-0.4261,-0.4263,-0.4265,0,0,0,0,0,0,-0.4751,-0.4739,-0.4621,-0.4664,-0.4647,-0.4565,-0.4542,-0.4527,-0.4506,-0.4425,-0.4409,-0.446,-0.4348,-0.4336,-0.4315,-0.4334,-0.4277,-0.4274,-0.426,-0.4262,-0.4264,-0.4357,0,0,0,0,0,0,-0.4756,-0.4741,-0.4745,-0.4665,-0.4646,-0.4607,-0.4543,-0.4526,-0.4501,-0.4492,-0.4416,-0.4402,-0.4346,-0.4321,-0.4312,-0.4328,-0.4272,-0.4258,-0.4261,-0.4264,-0.4352,-0.4363,-0.4372,0,0,0,0,0,-0.4761,-0.4777,-0.4746,-0.4733,-0.4649,-0.4609,-0.4597,-0.4532,-0.4503,-0.4506,-0.4453,-0.4405,-0.4334,-0.432,-0.4309,-0.4324,-0.4256,-0.426,-0.4263,-0.4348,-0.4361,-0.4371,0,0,0,0,0,0,-0.4862,-0.4765,-0.473,-0.472,-0.4673,-0.4591,-0.4594,-0.4548,-0.4509,-0.4503,-0.4424,-0.4408,-0.4395,-0.4357,-0.4344,-0.4331,-0.4288,-0.429,-0.4356,-0.4368,-0.4377,-0.4386,-0.4269,0,0,0,0,0,-0.4883,-0.4858,-0.4775,-0.4774,-0.4752,-0.4678,-0.4657,-0.4611,-0.456,-0.454,-0.4485,-0.4438,-0.4404,-0.4384,-0.4349,-0.4346,-0.4328,-0.4352,-0.4361,-0.437,-0.4372,-0.4366,-0.4375,-0.4277,-0.4277,-0.4277,0,0,-0.4926,-0.487,-0.4859,-0.4793,-0.4751,-0.4727,-0.4662,-0.4639,-0.462,-0.4536,-0.4513,-0.4472,-0.4413,-0.4401,-0.4393,-0.4369,-0.4395,-0.4374,-0.4382,-0.4379,-0.4371,-0.438,-0.4389,-0.428,-0.4279,-0.4279,0,0,-0.4992,-0.4948,-0.4941,-0.4901,-0.4838,-0.4788,-0.4787,-0.4711,-0.468,-0.4655,-0.4591,-0.4568,-0.4512,-0.4472,-0.4445,-0.4495,-0.4448,-0.4486,-0.4536,-0.4531,-0.4539,-0.4546,-0.4562,-0.4569,-0.4488,-0.4488,-0.4488,0,-0.5053,-0.5014,-0.4944,-0.4924,-0.4897,-0.4819,-0.4812,-0.4776,-0.4706,-0.4688,-0.4663,-0.459,-0.4545,-0.4522,-0.4534,-0.4515,-0.451,-0.4494,-0.4544,-0.4549,-0.4554,-0.4569,-0.4576,-0.4493,-0.4493,-0.4492,-0.4492,0,-0.5092,-0.5066,-0.5068,-0.5001,-0.4974,-0.4961,-0.4889,-0.4869,-0.4825,-0.4778,-0.4753,-0.4696,-0.4647,-0.4639,-0.4596,-0.4609,-0.4596,-0.4559,-0.4513,-0.457,-0.4583,-0.4588,-0.45,-0.4499,-0.4497,-0.4496,0,0,-0.5218,-0.5112,-0.5114,-0.5082,-0.5006,-0.4985,-0.4968,-0.492,-0.4904,-0.4858,-0.4841,-0.4796,-0.476,-0.4729,-0.4681,-0.4677,-0.4718,-0.4639,-0.4636,-0.4655,-0.4728,-0.4757,-0.4764,-0.4687,-0.4688,-0.4688,-0.4733,0,-0.5271,-0.5236,-0.5172,-0.5157,-0.5131,-0.5057,-0.5042,-0.4994,-0.4949,-0.492,-0.487,-0.4839,-0.4794,-0.4775,-0.4768,-0.4715,-0.4732,-0.4711,-0.467,-0.467,-0.4686,-0.4771,-0.4801,-0.4846,-0.4737,-0.4738,-0.4739,0,-0.5328,-0.5285,-0.5268,-0.5193,-0.518,-0.5168,-0.5118,-0.5092,-0.5036,-0.5003,-0.4968,-0.4915,-0.4893,-0.4852,-0.482,-0.4807,-0.4786,-0.4758,-0.4758,-0.4751,-0.4707,-0.4766,-0.4858,-0.4865,-0.4746,-0.4745,-0.4745,0,-0.542,-0.5359,-0.534,-0.5315,-0.5228,-0.522,-0.5184,-0.5126,-0.5101,-0.5057,-0.504,-0.4995,-0.497,-0.4936,-0.4872,-0.4848,-0.4846,-0.4801,-0.4818,-0.482,-0.4821,-0.4821,-0.4911,-0.4809,-0.4809,-0.4809,-0.4809,0,-0.5485,-0.5478,-0.538,-0.5368,-0.5357,-0.5283,-0.5274,-0.523,-0.5179,-0.5157,-0.5091,-0.5072,-0.4989,-0.496,-0.491,-0.4891,-0.488,-0.4853,-0.4839,-0.4858,-0.4862,-0.4843,-0.4838,-0.4811,-0.481,-0.481,-0.481,0,-0.5586,-0.5521,-0.5495,-0.5414,-0.5393,-0.5389,-0.5319,-0.5305,-0.5255,-0.5229,-0.5218,-0.5141,-0.5104,-0.5037,-0.4981,-0.4947,-0.4937,-0.4915,-0.4956,-0.4948,-0.4969,-0.4967,-0.5049,-0.5055,-0.4951,-0.4952,-0.4953,0,-0.5632,-0.5624,-0.5542,-0.5522,-0.5488,-0.5457,-0.5431,-0.5358,-0.5333,-0.5268,-0.5261,-0.5219,-0.5181,-0.5125,-0.5063,-0.502,-0.4995,-0.5027,-0.4988,-0.5007,-0.4994,-0.4995,-0.4994,-0.5035,-0.5037,-0.5038,-0.5039,0,-0.5719,-0.5687,-0.5651,-0.5604,-0.5574,-0.5533,-0.5489,-0.5477,-0.5394,-0.5369,-0.533,-0.5301,-0.5243,-0.5201,-0.5148,-0.511,-0.5061,-0.5052,-0.5053,-0.5072,-0.5096,-0.5082,-0.4979,-0.505,-0.5049,-0.5048,-0.5048,-0.5047,-0.5793,-0.5782,-0.5722,-0.5684,-0.5643,-0.5603,-0.5585,-0.5533,-0.5499,-0.5446,-0.5405,-0.5369,-0.5311,-0.5236,-0.52,-0.5171,-0.5148,-0.515,-0.5151,-0.5152,-0.5159,-0.5101,-0.5161,-0.5161,-0.516,-0.516,-0.516,0,-0.5876,-0.5833,-0.5799,-0.5739,-0.5709,-0.5665,-0.5613,-0.5591,-0.556,-0.5511,-0.5474,-0.5429,-0.5388,-0.5323,-0.5277,-0.5265,-0.5241,-0.5256,-0.5255,-0.5247,-0.5183,-0.5186,-0.5276,-0.5276,-0.5276,-0.5276,-0.5276,-0.5276,-0.5915,-0.5893,-0.5854,-0.5811,-0.5768,-0.5732,-0.5706,-0.5669,-0.5629,-0.5581,-0.5546,-0.5504,-0.5448,-0.5397,-0.5357,-0.5339,-0.5325,-0.5346,-0.5321,-0.5263,-0.5252,-0.5241,-0.5244,-0.5344,-0.5344,-0.5387,-0.5388,-0.5388]}]]